Location: Unspecified
(42.1834°N, 0.0000°E)
Time: 02:20:10
(UTC+00:00)

Okean 3 Rocket - Visible Passes

Search period start: 05 April 2026 00:00
Search period end: 15 April 2026 00:00
Orbit: 608 x 639 km, 82.5° (Epoch: 29 March)

Date Brightness Start Highest point End Pass type
(mag) Time Alt. Az. Time Alt. Az. Time Alt. Az.
5 Apr 5.2 19:25:08 10° SW 19:29:12 38° WNW 19:33:17 10° N visible
6 Apr 6.5 19:44:48 10° WSW 19:48:05 21° WNW 19:51:22 10° NNW visible
7 Apr 7.2 20:05:47 10° W 20:07:05 11° WNW 20:08:23 10° NW visible
8 Apr 6.8 04:33:49 10° NNE 04:36:55 19° ENE 04:40:01 10° ESE visible
9 Apr 5.6 04:51:49 10° N 04:55:49 34° ENE 04:59:50 10° SE visible
9 Apr 5.8 19:02:15 10° SW 19:06:08 31° WNW 19:10:02 10° NNW visible
10 Apr 6.9 19:22:09 10° WSW 19:25:03 17° WNW 19:27:58 10° NNW visible
11 Apr 7.1 03:53:08 10° NE 03:54:54 12° ENE 03:56:38 10° E visible
12 Apr 6.4 04:10:25 10° NNE 04:13:52 22° ENE 04:17:20 10° SE visible
13 Apr 5.1 04:28:34 10° N 04:32:44 40° ENE 04:36:56 10° SSE visible
14 Apr 3.8 04:47:04 10° N 04:51:30 80° E 04:55:56 10° S visible
